TimeCDT,TemperatureF,Dew PointF,Humidity,Sea Level PressureIn,VisibilityMPH,Wind Direction,Wind SpeedMPH,Gust SpeedMPH,PrecipitationIn,Events,Conditions,WindDirDegrees,DateUTC
12:15 AM,33.1,31.8,95,29.94,10.0,NW,9.2,-,N/A,,Clear,320,2013-10-23 05:15:00
12:35 AM,32.9,31.6,95,29.94,10.0,NW,8.1,-,N/A,,Clear,320,2013-10-23 05:35:00
12:55 AM,32.5,31.5,96,29.94,10.0,NW,9.2,-,N/A,,Scattered Clouds,320,2013-10-23 05:55:00
1:35 AM,32.9,31.5,94,29.94,10.0,NNW,8.1,-,N/A,,Overcast,330,2013-10-23 06:35:00
1:55 AM,33.1,31.6,94,29.94,10.0,NNW,6.9,-,N/A,,Overcast,330,2013-10-23 06:55:00
2:15 AM,32.9,31.5,94,29.94,10.0,NW,8.1,-,N/A,,Overcast,320,2013-10-23 07:15:00
2:35 AM,32.9,31.5,94,29.94,10.0,NNW,6.9,-,N/A,,Overcast,330,2013-10-23 07:35:00
2:55 AM,32.5,31.6,96,29.94,10.0,NW,6.9,-,N/A,,Overcast,320,2013-10-23 07:55:00
3:15 AM,32.2,31.6,98,29.94,10.0,NW,8.1,-,N/A,,Overcast,310,2013-10-23 08:15:00
3:35 AM,32.0,32.0,100,29.94,10.0,NW,5.8,-,N/A,,Overcast,320,2013-10-23 08:35:00
3:55 AM,32.0,32.0,100,29.94,10.0,NNW,5.8,-,N/A,,Mostly Cloudy,330,2013-10-23 08:55:00
4:15 AM,31.6,31.6,100,29.94,10.0,NW,8.1,-,N/A,,Mostly Cloudy,310,2013-10-23 09:15:00
4:35 AM,31.3,31.3,100,29.94,10.0,NW,5.8,-,N/A,,Scattered Clouds,310,2013-10-23 09:35:00
4:55 AM,30.9,30.9,100,29.95,10.0,WNW,8.1,-,N/A,,Scattered Clouds,290,2013-10-23 09:55:00
5:15 AM,30.4,30.4,100,29.95,10.0,WNW,9.2,-,N/A,,Scattered Clouds,300,2013-10-23 10:15:00
5:35 AM,30.0,30.0,100,29.95,10.0,WNW,9.2,-,N/A,,Scattered Clouds,300,2013-10-23 10:35:00
5:55 AM,29.8,29.8,100,29.95,10.0,WNW,8.1,-,N/A,,Clear,300,2013-10-23 10:55:00
6:15 AM,30.0,30.0,100,29.96,10.0,WNW,8.1,-,N/A,,Clear,290,2013-10-23 11:15:00
6:35 AM,30.0,30.0,100,29.96,10.0,West,8.1,-,N/A,,Clear,280,2013-10-23 11:35:00
6:55 AM,29.8,29.8,100,29.97,10.0,WNW,9.2,-,N/A,,Clear,290,2013-10-23 11:55:00
7:15 AM,29.7,29.7,100,29.97,10.0,West,8.1,-,N/A,,Clear,280,2013-10-23 12:15:00
7:35 AM,30.0,30.0,100,29.97,10.0,WNW,9.2,-,N/A,,Scattered Clouds,290,2013-10-23 12:35:00
7:55 AM,30.2,30.2,100,29.97,10.0,WNW,10.4,-,N/A,,Scattered Clouds,290,2013-10-23 12:55:00
8:15 AM,31.1,31.1,100,29.98,10.0,West,9.2,-,N/A,,Scattered Clouds,280,2013-10-23 13:15:00
8:35 AM,32.0,32.0,100,29.98,10.0,WNW,8.1,-,N/A,,Mostly Cloudy,290,2013-10-23 13:35:00
8:55 AM,32.9,32.5,99,29.99,10.0,WNW,8.1,-,N/A,,Overcast,290,2013-10-23 13:55:00
9:15 AM,32.9,32.9,100,29.99,10.0,West,6.9,-,N/A,,Overcast,280,2013-10-23 14:15:00
9:35 AM,33.3,32.5,97,29.99,10.0,WNW,5.8,-,N/A,,Overcast,290,2013-10-23 14:35:00
9:55 AM,33.8,32.0,93,29.99,10.0,West,5.8,-,N/A,,Overcast,270,2013-10-23 14:55:00
10:15 AM,34.7,31.3,87,29.99,10.0,WNW,4.6,-,N/A,,Overcast,300,2013-10-23 15:15:00
10:35 AM,36.0,28.4,74,29.99,10.0,West,6.9,-,N/A,,Overcast,280,2013-10-23 15:35:00
10:55 AM,37.2,28.2,70,30.00,10.0,NW,8.1,-,N/A,,Overcast,310,2013-10-23 15:55:00
11:15 AM,38.5,27.7,65,30.00,10.0,NW,6.9,-,N/A,,Overcast,320,2013-10-23 16:15:00
11:35 AM,38.5,27.3,64,29.99,10.0,WNW,5.8,-,N/A,,Overcast,300,2013-10-23 16:35:00
11:55 AM,39.6,26.6,60,29.99,10.0,WNW,5.8,-,N/A,,Overcast,300,2013-10-23 16:55:00
12:15 PM,40.5,25.9,56,29.99,10.0,NW,8.1,-,N/A,,Overcast,310,2013-10-23 17:15:00
12:35 PM,42.3,27.5,56,29.99,10.0,West,9.2,-,N/A,,Overcast,280,2013-10-23 17:35:00
12:55 PM,40.5,25.0,54,29.98,10.0,WNW,10.4,17.3,N/A,,Overcast,290,2013-10-23 17:55:00
1:15 PM,40.3,26.4,58,29.98,10.0,West,10.4,-,N/A,,Overcast,270,2013-10-23 18:15:00
1:35 PM,40.5,26.4,57,29.97,10.0,West,11.5,-,N/A,,Overcast,280,2013-10-23 18:35:00
1:55 PM,40.6,26.6,57,29.97,10.0,West,12.7,-,N/A,,Overcast,280,2013-10-23 18:55:00
2:15 PM,41.2,25.0,53,29.97,10.0,West,13.8,-,N/A,,Mostly Cloudy,280,2013-10-23 19:15:00
2:35 PM,41.0,26.1,55,29.97,10.0,West,11.5,15.0,N/A,,Overcast,260,2013-10-23 19:35:00
2:55 PM,40.1,27.1,60,29.97,10.0,WNW,8.1,17.3,N/A,,Overcast,300,2013-10-23 19:55:00
3:15 PM,40.1,27.5,61,29.97,10.0,West,4.6,-,N/A,,Overcast,280,2013-10-23 20:15:00
3:35 PM,41.0,23.0,49,29.97,10.0,West,19.6,23.0,N/A,,Overcast,270,2013-10-23 20:35:00
3:55 PM,40.1,25.3,56,29.97,10.0,WNW,9.2,-,N/A,,Overcast,290,2013-10-23 20:55:00
4:15 PM,40.6,22.8,49,29.97,10.0,WNW,11.5,16.1,N/A,,Overcast,290,2013-10-23 21:15:00
4:35 PM,41.0,22.3,47,29.97,10.0,West,12.7,18.4,N/A,,Overcast,280,2013-10-23 21:35:00
4:55 PM,40.5,21.4,47,29.98,10.0,West,11.5,17.3,N/A,,Overcast,280,2013-10-23 21:55:00
5:15 PM,40.3,21.4,47,29.98,10.0,WNW,8.1,-,N/A,,Overcast,290,2013-10-23 22:15:00
5:35 PM,40.1,22.1,49,29.98,10.0,West,9.2,-,N/A,,Overcast,270,2013-10-23 22:35:00
5:55 PM,39.6,22.3,50,29.98,10.0,West,6.9,-,N/A,,Overcast,270,2013-10-23 22:55:00
6:15 PM,39.2,22.1,50,29.98,10.0,West,6.9,-,N/A,,Overcast,280,2013-10-23 23:15:00
6:35 PM,39.2,21.6,49,29.98,10.0,West,10.4,-,N/A,,Overcast,280,2013-10-23 23:35:00
6:55 PM,38.7,22.1,51,29.99,10.0,West,9.2,-,N/A,,Overcast,270,2013-10-23 23:55:00
7:15 PM,38.3,22.6,53,29.99,10.0,West,10.4,-,N/A,,Overcast,260,2013-10-24 00:15:00
7:35 PM,38.5,23.2,54,30.00,10.0,West,9.2,-,N/A,,Overcast,270,2013-10-24 00:35:00
7:55 PM,38.3,23.5,55,30.00,10.0,West,9.2,-,N/A,,Overcast,280,2013-10-24 00:55:00
8:15 PM,37.9,23.9,57,30.00,10.0,West,9.2,-,N/A,,Overcast,280,2013-10-24 01:15:00
8:35 PM,37.6,24.6,60,30.00,10.0,West,8.1,-,N/A,,Overcast,270,2013-10-24 01:35:00
8:55 PM,37.8,24.8,60,30.00,10.0,West,8.1,-,N/A,,Overcast,280,2013-10-24 01:55:00
9:15 PM,37.6,25.3,61,30.00,10.0,WNW,12.7,-,N/A,,Overcast,290,2013-10-24 02:15:00
9:35 PM,37.4,25.9,63,30.00,10.0,West,6.9,-,N/A,,Overcast,280,2013-10-24 02:35:00
9:55 PM,37.0,26.6,66,30.00,10.0,West,8.1,-,N/A,,Overcast,280,2013-10-24 02:55:00
10:15 PM,36.9,26.6,66,30.00,10.0,West,6.9,-,N/A,,Overcast,280,2013-10-24 03:15:00
10:35 PM,36.7,27.0,68,30.00,10.0,West,6.9,-,N/A,,Overcast,270,2013-10-24 03:35:00
10:55 PM,36.5,27.1,69,30.00,10.0,West,8.1,-,N/A,,Overcast,270,2013-10-24 03:55:00
11:15 PM,36.5,26.6,67,30.00,10.0,West,6.9,-,N/A,,Overcast,270,2013-10-24 04:15:00
11:35 PM,36.1,26.6,68,30.00,10.0,WNW,6.9,-,N/A,,Overcast,290,2013-10-24 04:35:00
11:55 PM,35.8,27.0,70,30.01,10.0,WNW,5.8,-,N/A,,Overcast,290,2013-10-24 04:55:00